STARLINK-11513, 62589

Orbit data source: Space-Track

STARLINK-11513, 62589 is a payload satellite owned by SpaceX/Seattle (US) in LEO that was launched on Mon, 13 Jan 2025 UTC via an FALCON 9 launch vehicle from the Air Force Eastern Test Range (AFETR). Payload-class satellites include a variety of spacecraft equipped with specific instruments for various scientific and technological missions. These include communications satellites like Starlink; space stations such as the ISS; scientific satellites like the Hubble; Earth observation satellites from companies like Planet Labs, Umbra, and HawkEye 360; GPS; miniature CubeSats for education and research; and military/defense satellites.

Loading next visibility...
Identifier
62589, 2025-008C
Orbit
LEO
Country
Flag of USUS
Related business
Manufacturer
SpaceX/Seattle
Mission
Operational Commercial Communications
Bus & Motor
STARLINK V2MD, Unknown motor
Mass
960 kg wet, ~910 kg dry
Launch date (UTC)
2025-01-13 (1 year ago)
Launch vehicle
FALCON 9
Launch site
Air Force Eastern Test Range (AFETR)
Object type
Payload
Rocket body
Debris
Shape & HBR
Box + 2 Pan, 18.1 m
Radar Cross Section
36.964 m², Large (>1 m²)

Expand to show TLE details & history
Last TLE update: 12 hours ago

TLE from 12 hours ago
0 STARLINK-11513
1 62589U 25008C   26125.08841831  .00314175  00000-0  23492-2 0  9997
2 62589  42.9994 146.2688 0001623 250.5679 109.5013 15.70954432 74987
Epoch: 2026-05-05T02:07Z
TLE epoch observation values (Epoch: 2026-05-05T02:07:19.341Z)
Latitude
-0.00007°
Longitude
-108.53014°
Altitude
356.304 km
Speed
7.697 km/s
True Right ascension
09h 45m 04s
True Declination
0° 00' 00"
Sunlit
Object was in daylight at epoch
Visualization orbit readout
Latitude
Unknown
Longitude
Unknown
Altitude
Unknown
Speed
Unknown
Apparent Right ascension
Unknown
Apparent Declination
Unknown
Sunlit
N/A
Visualization observer readout
Local Sidereal Time
21:46:47
Azimuth
Unknown
Elevation
Unknown
Doppler factor
Unknown
Orbital elements
Apogee altitude
359.243 km
Perigee altitude
357.056 km
Semi-major axis
6,736.287 km
Eccentricity
0.00016
Inclination
42.9994°
RAAN
146.2688°
Arg. of periapsis
250.5679°
True anomaly
109.51883°
Mean anomaly
109.5013°
Eccentric anomaly
109.51007°
Mean motion
3.92566 °/min
Orbital period
91.7 mins
BSTAR
0.0023492
Loading maneuver chart data...
Computing Atmospheric mass density...
Loading historical data...
Loading historical data...
Loading historical data...
Loading historical data...
Loading historical data...
Loading historical data...
Loading historical data...

Documentation

Showing up to 5 results
|